To NAV CANADA Home Page Login to a new session Search on AWWS site Disclaimer Vers la page française équivalente Tips FAQ What's new on the site To the Forecasts and Observations / NOTAM section To "File a Flight Plan" website Publications and other links Update of the User's profile FIC Telephone Numbers My Weather Data Folder Route Weather Data Regional Weather Data Local Weather Data To the Forecasts and Observations / NOTAM section
Request Generated 07/10/2020 at 13:30:27 UTC . Weather information available at that time is displayed.

METAR/TAF

TORONTO/BUTTONVILLE MUNICIPAL/ON    

LWIS CYKZ 101300Z AUTO 17005KT 120V190 28/21 A2987=
LWIS CYKZ 101200Z AUTO 12007KT 26/21 A2988=
LWIS CYKZ 101100Z AUTO 09005KT 25/21 A2988=

CYKZ - No TAF is issued for this station

Your time UTC time
Weather data provided by Environment Canada and NAV CANADA